This demonstration page uses our WeatherBlox Daily Observations layout. Learn more.

Left ArrowRight Arrow

41.12389, -100.76542

Hourly Observations for March 28, 2021

Temp ( °F °C ) Dew Point ( °F °C ) Humidity (%) Winds ( mph kmh ) Pressure ( in mb ) Visibility ( mi km ) Precip ( " mm )
12:53 am 00:53 Clear 28 -2.2 23 -5 81 81 WNW 6 9 30.26 1025 10 16 0.00 0.00
1:53 am 01:53 Clear 27 -2.8 24 -4.4 89 89 NNW 3 6 30.26 1025 10 16 0.00 0.00
2:53 am 02:53 Clear 26 -3.3 23 -5 88 88 W 6 9 30.26 1025 10 16 0.00 0.00
3:53 am 03:53 Clear 26 -3.3 22 -5.6 84 84 WNW 3 6 30.25 1025 10 16 0.00 0.00
4:53 am 04:53 Clear 24 -4.4 21 -6.1 88 88 NW 6 9 30.25 1024 10 16 0.00 0.00
5:53 am 05:53 Clear 26 -3.3 23 -5 88 88 NW 6 9 30.25 1024 10 16 0.00 0.00
6:53 am 06:53 Clear 23 -5 19 -7.2 85 85 NNW 3 6 30.26 1025 10 16 0.00 0.00
7:53 am 07:53 Sunny 25 -3.9 21 -6.1 85 85 W 3 6 30.27 1025 10 16 0.00 0.00
8:53 am 08:53 Sunny 34 1.1 29 -1.7 82 82 Calm 30.26 1025 10 16 0.00 0.00
9:53 am 09:53 Sunny 42 5.6 32 0 68 68 W 7 11 30.24 1024 10 16 0.00 0.00
10:53 am 10:53 Sunny 51 10.6 34 1.1 52 52 VRB 3 6 30.21 1023 10 16 0.00 0.00
11:53 am 11:53 Sunny 60 15.6 30 -1.1 32 32 SW 15 24 30.17 1022 10 16 0.00 0.00
12:53 pm 12:53 Sunny 64 17.8 27 -2.8 25 25 undefined N/A 30.12 1020 10 16 0.00 0.00
1:53 pm 13:53 Sunny 66 18.9 28 -2.2 24 24 WSW 15 24 30.07 1018 10 16 0.00 0.00
2:53 pm 14:53 Sunny 67 19.4 30 -1.1 25 25 W 18 30 30.04 1017 10 16 0.00 0.00
3:53 pm 15:53 Sunny 70 21.1 29 -1.7 22 22 WNW 22 35 29.99 1016 10 16 0.00 0.00
4:53 pm 16:53 Sunny 71 21.7 26 -3.3 19 19 W 18 30 29.97 1015 10 16 0.00 0.00
5:53 pm 17:53 Sunny 71 21.7 27 -2.8 19 19 W 22 35 29.95 1014 10 16 0.00 0.00
6:53 pm 18:53 Sunny 68 20 26 -3.3 21 21 W 12 19 29.95 1014 10 16 0.00 0.00
7:53 pm 19:53 Sunny 60 15.6 30 -1.1 32 32 W 7 11 29.94 1014 10 16 0.00 0.00
8:53 pm 20:53 Clear 54 12.2 31 -0.6 42 42 S 5 7 29.94 1014 10 16 0.00 0.00
9:53 pm 21:53 Clear 50 10 30 -1.1 46 46 S 3 6 29.92 1013 10 16 0.00 0.00
10:53 pm 22:53 Clear 50 10 29 -1.7 44 44 Calm 29.88 1012 10 16 0.00 0.00
11:53 pm 23:53 Clear 41 5 30 -1.1 65 65 NNW 3 6 29.86 1011 10 16 0.00 0.00

Powered by AerisWeather